TimeCST,TemperatureF,Dew PointF,Humidity,Sea Level PressureIn,VisibilityMPH,Wind Direction,Wind SpeedMPH,Gust SpeedMPH,PrecipitationIn,Events,Conditions,WindDirDegrees,DateUTC
12:14 AM,42.8,32.0,66,29.79,9.0,WNW,20.7,28.8,N/A,,Overcast,300,2013-01-12 06:14:00
12:53 AM,37.9,33.1,83,29.83,10.0,WNW,15.0,-,N/A,,Partly Cloudy,300,2013-01-12 06:53:00
1:21 AM,37.4,30.2,75,29.85,10.0,NW,20.7,26.5,N/A,,Overcast,310,2013-01-12 07:21:00
2:02 AM,35.6,28.4,75,29.89,10.0,NW,20.7,28.8,N/A,,Scattered Clouds,310,2013-01-12 08:02:00
2:21 AM,35.6,28.4,75,29.90,10.0,NW,13.8,-,N/A,,Mostly Cloudy,310,2013-01-12 08:21:00
2:53 AM,34.0,26.1,73,29.93,10.0,NNW,16.1,23.0,N/A,,Overcast,330,2013-01-12 08:53:00
3:11 AM,33.8,26.6,75,29.93,10.0,NW,15.0,-,N/A,,Scattered Clouds,320,2013-01-12 09:11:00
3:53 AM,30.0,21.9,72,29.96,10.0,NW,18.4,27.6,N/A,,Clear,320,2013-01-12 09:53:00
4:53 AM,28.0,19.0,69,29.98,10.0,NW,16.1,-,N/A,,Clear,320,2013-01-12 10:53:00
5:53 AM,26.1,17.1,69,30.01,10.0,NNW,13.8,19.6,N/A,,Clear,330,2013-01-12 11:53:00
6:53 AM,26.1,16.0,66,30.04,10.0,NNW,10.4,-,N/A,,Clear,340,2013-01-12 12:53:00
7:53 AM,26.1,16.0,66,30.06,10.0,NNW,13.8,-,N/A,,Scattered Clouds,330,2013-01-12 13:53:00
8:53 AM,27.0,15.1,61,30.09,10.0,NW,15.0,-,N/A,,Overcast,320,2013-01-12 14:53:00
9:53 AM,27.0,12.0,53,30.11,10.0,NW,11.5,19.6,N/A,,Overcast,320,2013-01-12 15:53:00
10:53 AM,28.0,12.0,51,30.11,10.0,NNW,13.8,-,N/A,,Scattered Clouds,330,2013-01-12 16:53:00
11:53 AM,28.0,10.0,47,30.06,10.0,North,13.8,-,N/A,,Clear,350,2013-01-12 17:53:00
12:53 PM,28.0,10.0,47,30.05,10.0,North,13.8,-,N/A,,Mostly Cloudy,350,2013-01-12 18:53:00
1:53 PM,26.1,9.0,49,30.06,10.0,North,11.5,-,N/A,,Overcast,350,2013-01-12 19:53:00
2:53 PM,26.1,9.0,49,30.06,10.0,North,12.7,18.4,N/A,,Mostly Cloudy,360,2013-01-12 20:53:00
3:53 PM,26.1,9.0,49,30.07,10.0,North,9.2,-,N/A,,Overcast,360,2013-01-12 21:53:00
4:53 PM,26.1,9.0,49,30.13,10.0,North,6.9,-,N/A,,Overcast,350,2013-01-12 22:53:00
5:37 PM,24.8,14.0,64,30.09,2.5,North,9.2,-,0.00,Snow,Light Snow,360,2013-01-12 23:37:00
5:50 PM,23.0,17.6,80,30.07,1.8,NNW,11.5,-,0.00,Snow,Light Snow,340,2013-01-12 23:50:00
5:53 PM,23.0,18.0,81,30.10,1.5,NNW,11.5,-,0.00,Snow,Light Snow,340,2013-01-12 23:53:00
6:06 PM,21.2,19.4,93,30.05,1.2,North,6.9,-,0.00,Snow,Light Snow,360,2013-01-13 00:06:00
6:13 PM,21.2,19.4,93,30.06,1.8,North,9.2,-,0.00,Snow,Light Snow,350,2013-01-13 00:13:00
6:21 PM,21.2,19.4,93,30.05,2.5,North,10.4,-,0.00,Snow,Light Snow,350,2013-01-13 00:21:00
6:32 PM,21.2,19.4,93,30.04,5.0,North,8.1,-,0.00,Snow,Light Snow,360,2013-01-13 00:32:00
6:53 PM,23.0,18.0,81,30.10,10.0,North,6.9,-,0.00,,Overcast,350,2013-01-13 00:53:00
7:53 PM,24.1,12.0,60,30.11,10.0,NNW,16.1,-,N/A,,Overcast,340,2013-01-13 01:53:00
8:53 PM,24.1,10.9,57,30.11,10.0,NNW,18.4,21.9,N/A,,Overcast,340,2013-01-13 02:53:00
9:53 PM,21.9,10.9,63,30.12,10.0,NNW,15.0,-,N/A,,Overcast,330,2013-01-13 03:53:00
10:53 PM,19.9,10.0,65,30.12,10.0,NNW,15.0,-,N/A,,Clear,330,2013-01-13 04:53:00
11:53 PM,19.0,9.0,65,30.15,10.0,NNW,12.7,-,N/A,,Mostly Cloudy,340,2013-01-13 05:53:00